Location: Columbus AFB Auxilary Field
(32.9346°N, 88.5717°W)
Time: 17:16:39
(UTC-05:00)

N. Korean satellite - Visible Passes

Search period start: 21 March 2019 00:00
Search period end: 31 March 2019 00:00
Orbit: 456 x 510 km, 97.2° (Epoch: 20 March)

Date Brightness Start Highest point End Pass type
(mag) Time Alt. Az. Time Alt. Az. Time Alt. Az.
21 Mar 9.2 06:26:17 10° NE 06:29:19 26° E 06:32:23 10° SSE visible
22 Mar 10.1 06:02:52 10° ENE 06:04:24 12° E 06:05:57 10° ESE visible
25 Mar 9.5 06:20:33 10° NE 06:23:26 22° E 06:26:20 10° SSE visible
26 Mar 10.4 05:57:50 10° E 05:58:30 10° E 05:59:10 10° ESE visible
29 Mar 9.7 06:14:51 10° NE 06:17:31 19° E 06:20:12 10° SE visible
